Probability
0 0 0 0 0 0 0 0 0 0 0 0 0 0 0 0 0 0 0 0 0 0 0 0 0 0 0 0 0 0 0 0 0 0 0 0 0 0
0 0 0 0 0 0 0 0 0 0 0 0 0 0 0 0 0 0 0 0 0 0 0 0 0 0 0 0 0 0 0 0 0 0 0 0 0 0
0 0 0 0 0 0 0 0 0 0 0 0 0 0 0 0 0 0 0 0 0 0 0 0 0 0 0 0 0 0 0 0 0 0 0 0 0 0
0 0 0 0 0 0 0 0 0 0 0 0 0 0 0 0 0 0 0 0 0 0 0 0 0 0 0 0 0 0 0 0 0 0 0 0 0 0
0 0 0 0 0 0 0 0 0 0 0 0 0 0 0 0 0 0 0 0 0 0 0 0 0 0 0 0 0 0 0 0 0 0 0 0 0 0
0 0 0 0 0 0 0 0 0 0 0 0 0 0 0 0 0 0 0 0 0 0 0 0 0 0 0 0 0 0 0 0 0 0 0 0 0 0
0 0 0 0 0 0 0 0 0 0 0 0 0 0 0 0 0 0 0 0 0 0 0 0 0 0 0 0 0 0 0 0 0 0 0 0 0 0
0 0 0 0 0 0 0 0 0 0 0 0 0 0 0 0 0 0 0 0 0 0 0 0 0 0 0 0 0 0 0 0 0 0 0 0 0 0
0 0 0 0 0 0 0 0 0 0 0 0 0 0 0 0 0 0 0 0 0 0 0 0 0 0 0 0 0 0 0 0 0 0 0 0 0 0
0 0 0 0 0 0 0 0 0 0 0 0 0 0 0 0 0 0 0 0 0 0 0 0 0 0 0 0 0 0 0 0 0 0 0 0 0 0
0 0 0 0 0 0 0 0 0 0 0 0 0 0 0 0 0 0 0 0 0 0 0 0 0 0 0 0 0 0 0 0 0 0 0 0 0 0
0 0 0 0 0 0 0 0 0 0 0 0 0 0 0 0 0 0 0 0 0 0 0 0 0 0 0 0 0 0 0 0 0 0 0 0 0 0
0 0 1 0 0 0 0 0 0 0 0 0 0 0 0 0 0 0 0 0 0 0 0 0 0 0 0 0 0 0 0 0 0 0 0 0 0 0
0 0 0 0 0 0 0 0 0 0 0 0 0 0 0 0 0 0 0 0 0 0 0 0 0 0 0 0 0 0 0 0 0 0 0 0 0 0
0 0 0 0 0 0 0 0 0 0 0 0 0 0 0 0 0 0 0 0 0 0 0 0 0 0 0 0 0 0 0 0 0 0 0 0 0 0
0 0 0 0 0 0 0 0 0 0 0 0 0 0 0 0 0 0 0 0 0 0 0 0 0 0 0 0 0 0 0 0 0 0 0 0 0 0
0 0 0 0 0 0 0 0 0 0 0 0 0 0 0 0 0 0 0 0 0 0 0 0 0 0 0 0 0 0 0 0 0 0 0 0 0 0
0 0 0 0 0 0 0 0 0 0 0 0 0 0 0 0 0 0 0 0 0 0 0 0 0 0 0 0 0 0 0 0 0 0 0 0 0 0
0 0 0 0 0 0 0 0 0 0 0 0 0 0 0 0 0 0 0 0 0 0 0 0 0 0 0 0 0 0 0 0 0 0 0 0 0 0
0 0 0 0 0 0 0 0 0 0 0 0 0 0 0 0 0 0 0 0 0 0 0 0 0 0 0 0 0 0 0 0 0 0 0 0 0 0
0 0 0 0 0 0 0 0 0 0 0 0 0 0 0 0 0 0 0 0 0 0 0 0 0 0 0 0 0 0 0 0 0 0 0 0 0 0
0 0 0 0 0 0 0 0 0 0 0 0 0 0 0 0 0 0 0 0 0 0 0 0 0 0 0 0 0 0 0 0 0 0 0 0 0 0
0 0 0 0 0 0 0 0 0 0 0 0 0 0 0 0 0 0 0 0 0 0 0 0 0 0 0 0 0 0 0 0 0 0 0 0 0 0
Wind_Speed
2 2 1 1 1 1 1 2 2 4 4 3 2 2 2 2 4 2 2 7 8 8 8 7 8 9 9 10 10 11 11 11 11 12 12 13 14 14
1 1 1 2 1 1 1 2 2 3 4 2 2 3 3 3 5 3 4 8 8 8 8 8 8 9 10 11 11 11 11 11 12 12 13 14 14 15
1 1 2 2 1 1 1 2 2 2 5 4 2 3 3 3 4 3 3 3 3 8 8 9 9 10 10 11 11 11 12 12 12 13 13 14 14 15
2 2 2 2 2 2 2 2 2 2 3 5 3 3 3 3 3 4 4 4 3 7 9 9 10 10 10 10 11 11 12 12 13 13 14 14 15 15
2 2 2 2 2 2 2 3 2 3 2 3 4 3 3 3 3 4 4 3 4 6 8 9 10 10 10 11 11 11 12 12 13 13 14 14 15 15
2 2 2 2 3 2 2 3 3 3 3 3 4 3 3 3 2 3 4 3 4 5 5 7 9 10 11 11 11 11 11 12 13 13 13 14 14 15
2 2 3 3 4 3 3 3 3 3 3 3 4 3 3 3 3 3 4 5 5 3 3 4 5 4 5 8 10 11 12 12 13 14 14 14 14 14
3 3 3 4 4 5 6 6 5 4 4 4 4 4 5 4 3 3 4 4 4 2 3 6 3 4 4 4 9 12 12 12 13 14 14 14 14 14
3 3 3 4 5 3 5 6 6 7 7 5 5 6 6 5 4 4 4 5 5 4 4 5 3 4 4 6 12 12 12 13 13 14 14 14 14 14
3 4 4 4 4 4 3 4 4 5 6 5 5 7 6 5 5 5 5 6 5 4 3 4 3 4 5 4 9 11 12 13 13 13 13 13 13 13
4 3 4 4 6 6 4 4 5 5 6 8 9 8 9 8 6 3 3 4 5 4 2 3 3 4 4 4 5 9 11 12 12 13 13 13 13 12
3 3 4 5 6 6 4 4 5 5 5 5 6 7 6 6 8 4 3 4 4 4 1 2 3 3 4 3 3 4 5 9 12 13 14 14 13 7
3 3 3 7 7 7 6 4 6 6 4 5 4 4 4 3 3 3 3 4 5 5 3 2 3 3 3 5 4 4 3 4 5 7 10 13 13 10
3 3 3 6 7 7 6 6 8 6 3 3 3 3 3 3 3 3 4 4 5 6 5 4 4 4 4 5 5 4 4 4 4 4 4 9 10 12
3 5 6 7 6 5 6 7 5 3 3 3 3 3 3 3 3 3 4 4 4 5 4 4 4 4 4 5 5 5 5 4 4 4 4 5 5 5
3 5 6 6 5 5 5 4 3 3 3 3 3 3 3 3 3 3 3 3 3 4 3 4 4 4 4 5 5 6 4 4 4 5 5 5 5 4
3 2 2 2 2 2 2 2 2 2 3 3 3 3 3 3 3 2 2 2 3 4 4 3 3 3 4 5 4 5 4 5 5 5 5 6 5 5
3 2 2 2 3 3 3 3 2 2 2 2 3 3 3 3 3 3 2 2 3 3 3 4 3 4 3 3 4 4 4 4 5 5 5 6 7 5
2 2 2 2 2 2 2 3 3 3 2 2 3 3 3 3 3 3 3 2 3 3 3 3 3 3 4 5 4 3 4 5 5 5 4 5 6 7
2 2 2 2 2 2 2 3 3 2 2 2 3 3 2 3 3 3 3 3 3 3 4 3 2 2 3 4 4 5 6 5 4 5 5 5 5 8
2 2 2 2 2 2 2 2 2 2 2 2 2 3 2 2 3 3 3 4 4 3 4 4 4 6 3 2 3 4 4 6 7 5 5 5 6 5
2 2 2 2 2 2 2 2 2 2 2 2 2 3 3 3 3 3 3 3 3 3 4 4 4 3 2 3 4 6 6 6 7 9 8 6 4 4
2 2 2 2 2 2 2 2 3 2 2 2 2 3 3 3 3 3 3 3 3 3 4 4 4 3 3 3 4 5 7 7 5 5 5 8 9 10
Wind_Direction
256 252 256 265 254 255 261 253 256 278 281 268 280 297 297 290 290 277 266 278 280 282 285 292 297 298 297 297 298 300 302 304 303 303 303 304 306 308
257 258 267 266 262 266 264 269 261 260 272 276 283 296 298 295 296 291 268 286 278 279 284 289 292 294 294 296 297 298 300 302 301 300 302 303 304 305
269 254 260 271 260 261 268 271 268 261 270 286 286 304 307 304 304 295 291 276 279 283 284 286 287 289 291 294 297 297 299 300 300 299 300 301 301 302
262 266 268 268 262 262 259 259 263 265 265 282 295 297 294 291 290 293 300 299 291 286 285 285 286 289 293 295 296 296 298 299 299 298 297 298 300 300
244 247 256 254 257 255 260 264 265 273 267 275 285 285 283 288 299 300 299 298 298 291 284 285 289 292 293 293 294 297 300 299 298 298 297 298 299 300
251 250 253 250 252 257 268 271 276 279 278 277 284 287 285 292 306 305 308 304 299 295 289 293 293 294 291 292 296 298 298 297 298 299 300 299 299 299
260 256 254 261 268 266 268 269 274 275 279 277 280 287 287 301 299 296 295 301 294 278 296 292 290 284 285 289 294 297 296 297 299 300 299 298 299 299
262 258 257 261 272 283 284 284 275 266 269 267 270 274 275 276 281 290 295 303 297 290 299 290 281 281 282 278 297 301 300 300 300 300 299 298 298 299
254 257 263 261 268 258 274 283 283 282 274 266 265 266 270 272 278 281 281 281 278 286 293 282 277 281 285 293 300 301 306 306 303 302 301 302 301 299
260 255 255 262 261 263 261 270 267 270 272 267 259 263 265 262 256 262 270 278 278 272 262 275 284 287 294 289 293 302 310 312 312 310 307 307 307 306
267 261 260 258 269 279 274 269 275 277 282 282 282 281 285 286 285 281 278 285 286 279 259 263 283 299 291 279 286 301 307 310 312 314 314 313 314 313
270 270 275 277 279 282 269 263 271 274 281 289 284 284 279 280 286 267 258 269 281 280 267 282 282 314 304 283 285 298 301 306 312 315 316 315 314 312
273 266 263 279 282 287 287 264 272 283 278 276 276 276 274 269 269 264 257 256 265 268 270 288 281 286 274 293 297 289 291 299 307 308 312 315 314 313
274 275 272 287 293 295 292 288 295 298 282 283 283 282 284 283 276 269 267 264 259 264 266 264 263 271 283 288 289 296 301 297 296 296 298 308 309 308
280 292 302 306 305 294 292 300 303 291 280 281 283 281 280 277 279 283 284 279 279 276 272 265 261 266 263 272 281 290 304 301 292 296 300 301 299 303
292 295 301 303 299 295 298 296 282 281 285 276 282 283 287 290 291 293 294 303 303 305 299 278 260 256 269 271 271 282 289 289 301 303 302 298 297 295
289 283 284 293 291 289 290 285 281 287 291 289 289 293 295 296 297 298 295 303 297 303 313 315 306 285 268 266 270 273 281 287 288 298 303 300 294 293
297 283 276 273 278 285 293 295 291 290 288 290 293 293 297 299 304 307 305 296 294 300 304 309 320 325 319 296 249 263 280 286 294 299 298 296 298 299
292 276 274 275 280 285 289 291 291 294 298 296 293 294 299 303 307 308 309 306 301 301 303 308 317 322 319 315 303 272 289 300 302 299 294 290 292 297
284 276 277 277 278 284 289 291 295 303 302 297 294 297 301 304 308 311 309 305 306 307 310 315 312 304 288 289 291 295 291 289 294 298 300 296 288 291
283 280 281 281 280 282 287 290 291 294 301 301 300 303 304 301 300 302 305 307 310 308 309 309 299 303 296 295 298 301 302 301 303 298 301 305 307 308
271 273 275 275 276 277 284 291 293 294 300 299 301 304 303 300 297 299 302 305 304 302 301 303 310 315 313 302 301 304 310 315 314 311 304 293 292 299
265 267 271 271 269 271 275 282 286 290 293 294 297 298 298 299 302 303 304 302 304 306 311 314 321 322 311 303 303 308 314 319 321 323 315 316 309 299